Weather in Temirtau

Kazakhstan     50°03′31″N   72°57′12″E
temp.,
°C
wind,
m/s
gust,
m/s
humid.,
%
clouds,
%
prec.,
mm/h
press.,
hPa
HPBL,
m
22 january, fri
fri2200:00−14nnw4795100 0.9 1016196
03:00−17nw3394100 0.0 101752
06:00−19nw3395100 0.0 101934
09:00−22w3497100 0.0 102245
12:00−21wsw4696100 0.0 1024236
15:00−22wsw6897100 0.0 1026302
18:00−24sw61198100 0.0 1028209
21:00−22sw7129795 0.1 1030297
23 january, sat
sat2300:00−19sw8139698 0.3 1030426
03:00−18sw81494100 0.1 1029460
06:00−18sw81395100 0.3 1029449
09:00−18sw61296100 0.3 1030429
12:00−16sw61193100 0.4 1030537
15:00−13sw6991100 0.2 1029713
18:00−17wsw3398100 0.3 103020
21:00−21w2310087 0.0 103320
24 january, sun
sun2400:00−22w2310082 0.1 103523
03:00−23w34100100 0.1 103737
06:00−25wsw34100100 0.1 103941
09:00−25wsw3499100 0.0 104182
12:00−23wsw4596100 0.0 1042237
15:00−22wsw4695100 0.0 1041269
18:00−23sw3396100 0.0 104165
21:00−22sw3397100 0.0 104259
25 january, mon
mon2500:00−21ssw3498100 0.1 1042106
03:00−20ssw3498100 0.1 1042123
06:00−20ssw369899 0.2 1041146
09:00−18ssw469798 0.3 1041225
12:00−16sw579498 0.5 1040299
15:00−14sw589399 0.1 1038357
18:00−15sw479699 0.3 1038271
21:00−15sw469697 0.3 1038183
26 january, tue
tue2600:00−15sw589697 0.7 1038208
03:00−13sw5895100 0.4 1037259
06:00−13sw589598 0.7 1037241
09:00−14wsw479696 0.3 1038165
12:00−11wsw469497 0.5 1038256
15:00−9wsw469499 0.2 1038289
18:00−11sw4696100 0.3 1038133
21:00−12sw459699 0.1 1039102